Regional Weather Roundup
Issued by NWS

Home | Current Version | Previous Version | Graphics & Text | Print | Product List | Glossary On
Versions: 1 2 3 4 5 6 7 8 9 10 11 12 13 14 15 16 17 18 19 20 21 22 23 24 25 26 27 28 29 30 31 32 33 34 35 36 37 38 39 40 41 42 43 44 45 46 47 48 49 50
489
ASUS43 KBIS 241802
RWRND

NORTH DAKOTA REGIONAL WEATHER ROUNDUP
NATIONAL WEATHER SERVICE BISMARCK ND
100 PM CDT SAT SEP 24 2016

NOTE: "FAIR" INDICATES FEW OR NO CLOUDS BELOW 12,000 FEET WITH NO
SIGNIFICANT WEATHER AND/OR OBSTRUCTIONS TO VISIBILITY.


NDZ001>003-009>011-017-241900-
NORTHWEST NORTH DAKOTA

CITY           SKY/WX    TMP DP  RH WIND       PRES   REMARKS
WILLISTON      CLOUDY    58  55  90 N17       29.73F FOG
6HR MIN TEMP:  55; 6HR MAX TEMP:  58; 6HR PCP:  0.01;

MINOT          PTSUNNY   74  66  76 SE9       29.71F
MINOT AFB      CLOUDY    70  66  86 SE9       29.70F
$$

NDZ018>021-031>035-040>046-241900-
SOUTHWEST NORTH DAKOTA

CITY           SKY/WX    TMP DP  RH WIND       PRES   REMARKS
BISMARCK       MOSUNNY   76  64  66 SE22      29.70F
6HR MIN TEMP:  60; 6HR MAX TEMP:  76;

DICKINSON      CLOUDY    64  61  90 S10       29.68S
GARRISON         N/A     72  65  78 SE13      29.70F
6HR MIN TEMP:  60; 6HR MAX TEMP:  73; 6HR PCP:  0.02;

HETTINGER ARPT MOSUNNY   65  53  65 S21G26    29.73R
$$

NDZ004>008-012>016-024-026-027-054-241900-
NORTHEAST NORTH DAKOTA

CITY           SKY/WX    TMP DP  RH WIND       PRES   REMARKS
GRAND FORKS    CLOUDY    74  66  76 SE16      29.84F
GRND FRKS AFB  CLOUDY    72  67  84 SE12G18   29.84F
DEVILS LAKE    CLOUDY    71  66  84 SE13      29.80F
$$

NDZ022-023-025-028>030-036>039-047>053-241900-
SOUTHEAST NORTH DAKOTA

CITY           SKY/WX    TMP DP  RH WIND       PRES   REMARKS
FARGO          MOSUNNY   79  66  64 S22G33    29.85F
6HR MIN TEMP:  68; 6HR MAX TEMP:  79;

JAMESTOWN      CLOUDY    73  66  78 SE14      29.79F
$$





USA.gov is the U.S. government's official web portal to all federal, state and local government web resources and services.